[[{"header":{"parameterUnit":"m.s-1","parameterCategory":1,"la1":30.2991,"la2":30.254,"lo1":-89.0895,"lo2":-89.0444,"dy":0.0017,"dx":0.0017,"nx":28,"ny":28,"refTime":"2025-05-15T21:00:00:Z","depth":0,"parameterNumber":2,"parameterNumberName":"U-component_of_WINDS"},"data":[0,0,0,0,0,0,0,0,0,0,0,0,0,0,0,0,0,0,0,0,0,0,0,0,0,0,0,0,0,0,0,0,0,0,0,0,0,0,0,0,0,0,0,0,0,0,0,0,0,0,0,0,0,0,0,0,0,0,1.4823,1.4823,0,1.4851,1.4851,1.4852,1.4863,1.4863,1.4863,1.4863,1.4893,1.4894,1.4895,0,0,0,0,0,0,0,0,0,0,0,0,0,1.4781,1.4782,1.4823,1.4823,1.4823,1.4851,1.4851,1.4852,1.4863,1.4863,1.4863,1.4863,1.4893,1.4894,1.4895,0,0,0,0,0,0,0,0,0,0,0,0,0,1.4803,1.4782,1.4823,1.4832,1.4834,1.4851,1.4851,1.4852,1.4863,1.4863,1.4863,1.4863,1.4892,1.4894,1.4895,1.4905,0,0,1.4899,1.4899,0,0,0,0,0,0,0,0,1.4802,1.4805,1.4831,1.4832,1.4833,1.4853,1.4848,1.487,1.4863,1.4852,1.4863,1.4863,1.488,1.4882,1.4888,1.4906,1.4907,1.4899,1.49,1.49,1.4901,0,0,0,0,0,0,0,1.4801,1.4804,1.4834,1.4831,1.4833,1.4836,1.4839,1.4852,1.4866,1.4853,1.4854,1.4857,1.4881,1.4887,1.4889,1.4908,1.4899,1.49,1.4901,1.4901,1.4938,1.4938,0,0,0,0,0,0,1.4797,1.4802,1.4833,1.4835,1.4817,1.4837,1.484,1.4847,1.4866,1.4869,1.4857,1.4857,1.4884,1.4887,1.489,1.4904,1.49,1.4901,1.4902,1.4938,1.4938,1.4938,0,0,0,0,0,0,1.4796,1.48,1.4832,1.4819,1.4823,1.4838,1.4845,1.4848,1.4853,1.4869,1.4872,1.486,1.4884,1.4888,1.4901,1.4905,1.4902,1.4903,1.4937,1.4938,1.4938,1.4931,0,0,0,0,0,0,1.4795,1.4799,1.4803,1.4819,1.4824,1.4842,1.4845,1.4848,1.4856,1.4856,1.4873,1.4876,1.4885,1.4899,1.4903,1.4907,1.4904,1.4937,1.4937,1.4938,1.4931,1.4931,1.4931,0,0,0,0,0,1.4794,1.4799,1.4803,1.4806,1.4828,1.4842,1.4845,1.4855,1.4856,1.486,1.487,1.4875,1.4904,1.4901,1.4904,1.4909,1.4937,1.4937,1.4938,1.4931,1.4931,1.4931,0,0,0,0,0,0,1.4783,1.4802,1.4805,1.4817,1.4828,1.4844,1.4849,1.4855,1.4866,1.4866,1.4879,1.4882,1.4895,1.4903,1.4899,1.492,1.4921,1.4922,1.4914,1.4915,1.4915,1.4912,1.4905,0,0,0,0,0,1.4782,1.4791,1.4807,1.4816,1.4821,1.4834,1.4841,1.4848,1.486,1.4865,1.4876,1.4888,1.49,1.4908,1.492,1.4932,1.4937,1.4937,1.4937,1.4937,1.4938,1.4947,1.4948,1.4939,1.4939,1.4939,0,0,1.478,1.4791,1.4796,1.4814,1.4823,1.4834,1.4838,1.4848,1.4857,1.4866,1.488,1.4889,1.4903,1.4917,1.4923,1.4924,1.4942,1.4938,1.4938,1.4939,1.4948,1.4949,1.4949,1.494,1.494,1.494,0,0,1.4782,1.4791,1.4799,1.4809,1.4823,1.4832,1.4834,1.4851,1.4857,1.4871,1.4879,1.4889,1.4909,1.4919,1.4927,1.4935,1.4941,1.4939,1.4939,1.4948,1.4948,1.4949,1.4953,1.4954,1.494,1.494,1.494,0,1.4777,1.4793,1.4803,1.4813,1.4822,1.4831,1.4841,1.485,1.4867,1.4873,1.4874,1.49,1.4911,1.4927,1.4929,1.4935,1.4939,1.4937,1.4947,1.4948,1.4949,1.4953,1.4954,1.4939,1.4939,1.4939,1.4939,0,1.4787,1.4798,1.4803,1.482,1.4829,1.4839,1.4852,1.486,1.4866,1.4876,1.489,1.4903,1.4919,1.4923,1.4929,1.4942,1.4942,1.4945,1.4946,1.4949,1.4953,1.4955,1.4939,1.4939,1.4939,1.4939,0,0,1.4782,1.4806,1.4808,1.4816,1.4834,1.4843,1.4854,1.4869,1.4876,1.4888,1.4899,1.4916,1.4919,1.4928,1.4936,1.4944,1.4951,1.4946,1.4946,1.4947,1.4967,1.4965,1.4966,1.4955,1.4955,1.4955,1.4966,0,1.4786,1.4806,1.4817,1.4832,1.4843,1.4853,1.4863,1.4876,1.4885,1.4897,1.4907,1.492,1.4923,1.4929,1.4936,1.4948,1.4955,1.4948,1.4966,1.4966,1.4962,1.4968,1.4966,1.4975,1.4967,1.4968,1.4968,0,1.4794,1.4807,1.4823,1.4841,1.4846,1.4855,1.487,1.4881,1.4896,1.4902,1.4913,1.4921,1.4935,1.4935,1.4954,1.4949,1.4958,1.4965,1.4965,1.4968,1.4967,1.4971,1.4978,1.498,1.497,1.497,1.497,0,1.479,1.4811,1.4824,1.4831,1.4852,1.4858,1.4867,1.4882,1.4891,1.4905,1.4911,1.4926,1.4935,1.4947,1.496,1.4958,1.4979,1.4979,1.4985,1.4985,1.4989,1.4989,1.4998,1.4993,1.4993,1.4993,1.4993,0,1.4794,1.4804,1.4822,1.483,1.4843,1.4855,1.4868,1.4878,1.4891,1.4902,1.4912,1.4923,1.4938,1.4951,1.4961,1.4977,1.498,1.4987,1.499,1.4986,1.4986,1.4992,1.4992,1.4994,1.4994,1.4994,1.4994,0,1.4791,1.4803,1.4818,1.4837,1.4843,1.4851,1.4868,1.4877,1.4887,1.4901,1.4905,1.4922,1.4938,1.4952,1.4973,1.498,1.4996,1.4999,1.4991,1.4992,1.4998,1.4998,1.5012,1.5015,1.5008,1.5008,1.5008,0,1.4792,1.48,1.4821,1.4829,1.4838,1.4851,1.486,1.4874,1.4883,1.4902,1.4909,1.4926,1.494,1.4965,1.498,1.4996,1.5,1.5004,1.5002,1.4999,1.5001,1.5001,1.5002,1.5004,1.5004,1.5004,1.5004,0,1.4795,1.4801,1.4814,1.483,1.4841,1.4854,1.4867,1.4874,1.489,1.4901,1.4917,1.4928,1.495,1.4967,1.4985,1.4996,1.5003,1.5004,1.5007,1.5004,1.4999,1.5003,1.4992,1.5004,1.5004,1.5004,1.5004,1.5004,1.4795,1.4803,1.4819,1.4834,1.4845,1.4858,1.4868,1.488,1.4894,1.4913,1.492,1.4937,1.4954,1.498,1.4991,1.5005,1.5006,1.5009,1.501,1.5011,1.5011,1.4997,1.5008,1.5008,1.5008,1.5008,1.5008,0,1.4798,1.4809,1.4823,1.4842,1.4854,1.4859,1.4875,1.4885,1.49,1.4915,1.4929,1.4949,1.4966,1.4982,1.5,1.5009,1.5013,1.5013,1.5013,1.5016,1.5008,1.5005,1.501,1.501,1.501,1.501,1.501,1.501,1.4801,1.4816,1.4825,1.4846,1.4858,1.4874,1.4883,1.4896,1.4908,1.4929,1.4944,1.4954,1.4971,1.499,1.5007,1.5011,1.5018,1.5018,1.5023,1.5016,1.5016,1.5016,1.5012,1.5019,1.5019,1.5029,1.503,1.503]},{"header":{"parameterUnit":"m.s-1","parameterCategory":1,"la1":30.2991,"la2":30.254,"lo1":-89.0895,"lo2":-89.0444,"dy":0.0017,"dx":0.0017,"nx":28,"ny":28,"refTime":"2025-05-15T21:00:00:Z","depth":0,"parameterNumber":3,"parameterNumberName":"V-component_of_WINDS"},"data":[0,0,0,0,0,0,0,0,0,0,0,0,0,0,0,0,0,0,0,0,0,0,0,0,0,0,0,0,0,0,0,0,0,0,0,0,0,0,0,0,0,0,0,0,0,0,0,0,0,0,0,0,0,0,0,0,0,0,4.06,4.06,0,4.0565,4.0565,4.0564,4.0585,4.0586,4.0587,4.0588,4.0544,4.0542,4.054,0,0,0,0,0,0,0,0,0,0,0,0,0,4.0679,4.0677,4.06,4.06,4.0599,4.0565,4.0565,4.0564,4.0585,4.0586,4.0587,4.0588,4.0545,4.0542,4.054,0,0,0,0,0,0,0,0,0,0,0,0,0,4.0644,4.0677,4.06,4.0606,4.0606,4.0565,4.0565,4.0564,4.0584,4.0586,4.0587,4.0589,4.0546,4.0542,4.0539,4.0489,0,0,4.053,4.0528,0,0,0,0,0,0,0,0,4.0646,4.0641,4.0605,4.0605,4.0605,4.0581,4.0576,4.0539,4.0584,4.0592,4.0588,4.059,4.0555,4.0551,4.0541,4.0487,4.0485,4.0529,4.0527,4.0526,4.0525,0,0,0,0,0,0,0,4.0649,4.0643,4.0586,4.0605,4.0605,4.0608,4.0605,4.0569,4.0565,4.0592,4.0593,4.0589,4.0555,4.0544,4.054,4.0485,4.053,4.0527,4.0525,4.0524,4.039,4.0389,0,0,0,0,0,0,4.0652,4.0645,4.0587,4.0585,4.063,4.0605,4.0602,4.0587,4.0566,4.0564,4.0588,4.059,4.0548,4.0543,4.0538,4.048,4.0526,4.0523,4.0521,4.0392,4.039,4.0388,0,0,0,0,0,0,4.0653,4.0646,4.0589,4.0615,4.0608,4.0602,4.0586,4.0586,4.0575,4.0563,4.0561,4.0578,4.0549,4.0543,4.0502,4.0478,4.0522,4.0519,4.0394,4.0391,4.0389,4.0361,0,0,0,0,0,0,4.0655,4.0647,4.0629,4.0615,4.0607,4.0555,4.0584,4.0584,4.057,4.0573,4.0553,4.0551,4.055,4.0507,4.0499,4.0475,4.0516,4.0396,4.0393,4.039,4.0364,4.0358,4.0353,0,0,0,0,0,4.0658,4.062,4.0628,4.0621,4.0585,4.0554,4.0549,4.0551,4.0568,4.0549,4.0542,4.0551,4.0482,4.0503,4.0494,4.0468,4.0397,4.0394,4.039,4.0367,4.0359,4.0353,0,0,0,0,0,0,4.0628,4.0619,4.0627,4.0584,4.057,4.0557,4.0534,4.0542,4.0521,4.0524,4.0525,4.0521,4.0479,4.0469,4.0492,4.042,4.0442,4.0437,4.0428,4.042,4.0415,4.0418,4.0514,0,0,0,0,0,4.0618,4.0595,4.0587,4.055,4.0543,4.0539,4.0526,4.0529,4.0513,4.0507,4.0496,4.0479,4.0453,4.0436,4.0412,4.0363,4.0359,4.0341,4.0335,4.0331,4.0326,4.0301,4.0293,4.0376,4.0376,4.0376,0,0,4.0594,4.0585,4.0571,4.0544,4.0533,4.0509,4.0534,4.0506,4.0488,4.0501,4.0464,4.0456,4.0436,4.0392,4.0372,4.0383,4.0303,4.0326,4.0323,4.032,4.0296,4.0288,4.0282,4.0373,4.0374,4.0374,0,0,4.0538,4.0529,4.0499,4.0489,4.0474,4.0472,4.0465,4.0451,4.0447,4.041,4.0421,4.0397,4.0353,4.0339,4.0326,4.0268,4.0276,4.0259,4.023,4.0205,4.0199,4.0193,4.0173,4.0166,4.0254,4.0254,4.0254,0,4.0509,4.0475,4.0481,4.0454,4.0441,4.0456,4.0424,4.0413,4.0389,4.038,4.0393,4.034,4.0327,4.0281,4.0267,4.0256,4.0247,4.0262,4.02,4.0194,4.0188,4.0169,4.0162,4.0253,4.0253,4.0253,4.0253,0,4.0441,4.0417,4.0394,4.0375,4.036,4.033,4.033,4.0313,4.0318,4.0315,4.0277,4.0263,4.0237,4.0226,4.0229,4.018,4.0188,4.02,4.0223,4.0179,4.0161,4.0154,4.025,4.0251,4.0251,4.0252,0,0,4.0365,4.0352,4.0343,4.0335,4.0321,4.0301,4.0272,4.0249,4.0236,4.0219,4.0194,4.0158,4.017,4.0155,4.0157,4.0135,4.0091,4.015,4.015,4.0141,4.0038,4.003,4.0021,4.0097,4.0095,4.0094,4.004,0,4.0309,4.0262,4.0267,4.022,4.0199,4.0213,4.0187,4.0175,4.0171,4.015,4.0145,4.012,4.0137,4.0129,4.0108,4.0101,4.0071,4.0105,4.0073,4.0072,4.0079,4.0012,4.0002,3.9952,4.0033,4.0032,4.0031,0,4.0238,4.0223,4.0175,4.0166,4.0157,4.0134,4.0115,4.0096,4.0081,4.008,4.0065,4.0071,4.004,4.0064,4.0022,4.0045,4.0032,4.0027,4.0025,4.0022,4.0049,4.0008,3.9936,3.9929,4.002,4.0021,4.0022,0,4.0189,4.0156,4.0124,4.0116,4.0104,4.0088,4.0082,4.007,4.0057,4.0039,4.003,4.0008,3.9996,3.9978,3.9977,3.9995,3.9935,3.9958,3.9932,3.9933,3.9919,3.992,3.9845,3.991,3.991,3.991,3.991,0,4.0126,4.0097,4.0102,4.0082,4.005,4.0055,4.0022,4.0017,4.0007,3.9985,3.9995,3.9974,3.9974,3.9952,3.9951,3.9917,3.9911,3.9908,3.9908,3.9908,3.9909,3.99,3.9904,3.9908,3.9908,3.9909,3.9909,0,4.0066,4.0068,4.0034,4.0027,4.0024,4.0001,3.9993,3.9974,3.9972,3.9945,3.9939,3.9935,3.991,3.9908,3.9878,3.9877,3.9836,3.9839,3.9842,3.9843,3.9818,3.9821,3.9735,3.9724,3.9795,3.9794,3.9794,0,4.0026,4.0005,3.9996,3.9984,3.9978,3.9957,3.9945,3.995,3.9936,3.992,3.9902,3.9879,3.9861,3.9821,3.9814,3.9792,3.9795,3.9767,3.9791,3.9792,3.9796,3.9798,3.9796,3.9762,3.9761,3.976,3.976,0,3.9956,3.9959,3.9943,3.9927,3.9913,3.9899,3.9887,3.9876,3.9879,3.9863,3.984,3.9826,3.9798,3.9775,3.9753,3.9745,3.9752,3.9752,3.9745,3.9745,3.9748,3.9747,3.983,3.9754,3.9755,3.9755,3.9755,3.9756,3.9906,3.9888,3.988,3.9861,3.9853,3.9842,3.9825,3.9822,3.9804,3.9783,3.9786,3.976,3.9747,3.972,3.971,3.9689,3.9699,3.9688,3.9686,3.9683,3.9682,3.9751,3.9685,3.9685,3.9685,3.9685,3.9686,0,3.9837,3.9834,3.9817,3.9801,3.9787,3.9798,3.9786,3.9772,3.975,3.9739,3.9722,3.9696,3.9674,3.9667,3.9645,3.963,3.9633,3.9624,3.9626,3.9624,3.9674,3.9683,3.9622,3.9622,3.9622,3.9622,3.9622,3.9622,3.98,3.9772,3.9774,3.9741,3.9737,3.9714,3.9706,3.9696,3.9687,3.9659,3.9642,3.9638,3.9628,3.9607,3.9587,3.9585,3.9577,3.9567,3.9567,3.9614,3.962,3.9626,3.9635,3.9565,3.9565,3.9519,3.9518,3.9518]}]]